Regional Weather Roundup
Issued by NWS

Home | Current Version | Previous Version | Graphics & Text | Print | Product List | Glossary On
Versions: 1 2 3 4 5 6 7 8 9 10 11 12 13 14 15 16 17 18 19 20 21 22 23 24 25 26 27 28 29 30 31 32 33 34 35 36 37 38 39 40 41 42 43 44 45 46 47 48 49 50
000
ASUS45 KBOU 021907
RWRCO

WEATHER ROUNDUP FOR COLORADO
NATIONAL WEATHER SERVICE DENVER/BOULDER CO
1200 PM MST MON MAR 02 2015

NOTE: "FAIR" INDICATES FEW OR NO CLOUDS BELOW 12000 FEET WITH NO
SIGNIFICANT WEATHER AND/OR OBSTRUCTIONS TO VISIBILITY.

COZ001>005-013-030-031-022000-
...NORTHWEST COLORADO...

CITY           SKY/WX    TMP DP  RH WIND       PRES   REMARKS
CRAIG          CLOUDY    39  34  82 E7        29.76F
HAYDEN         NOT AVBL
MEEKER         LGT RAIN  48  37  65 SW20G32   29.74F
MOUNT WERNER   NOT AVBL
STEAMBOAT SPGS CLOUDY    37  31  78 CALM      29.78F
WALDEN         CLOUDY    37  30  75 S17G28    29.79F
$$

COZ006>008-011-022000-
...WEST CENTRAL VALLEYS...

CITY           SKY/WX    TMP DP  RH WIND       PRES   REMARKS
GRAND JUNCTION PTSUNNY   52  38  58 SE10G25   29.71F
MONTROSE       NOT AVBL
EAGLE          CLOUDY    37  34  87 SW5       29.82F
RIFLE          LGT RAIN  37  35  92 CALM      29.78F
DELTA          NOT AVBL
NUCLA          PTSUNNY   52  32  46 S29G36    29.81F
$$

COZ017>023-064>068-022000-
...SOUTHWEST COLORADO...

CITY           SKY/WX    TMP DP  RH WIND       PRES   REMARKS
DURANGO        NOT AVBL
CORTEZ         CLOUDY    49  31  49 SE18G29   29.84F
PAGOSA SPRINGS CLOUDY    41  31  67 NE5       29.97F
TELLURIDE      CLOUDY    40  23  50 SE24G39   29.89F
WOLF CREEK PAS CLOUDY    21  21 100 SW12G23   30.03F WCI   9
$$

COZ009-010-012-014-032>034-037-058>063-022000-
...CENTRAL COLORADO...

CITY           SKY/WX    TMP DP  RH WIND       PRES   REMARKS
ASPEN          CLOUDY    45  27  49 S17       29.80F
BUENA VISTA    PTSUNNY   37  26  62 CALM      29.88F
COPPER MTN     LGT SNOW  32  23  69 S18G35    29.91F WCI  20
BERTHOUD PASS  CLOUDY    27  19  74 W24G41    29.92R HAZE    WCI  12
COTTONWOOD PAS PTSUNNY   36  30  80 SE10G17   29.90F
GUNNISON       NOT AVBL
KREMMLING      CLOUDY    41  28  60 S3        29.82F
LEADVILLE      CLOUDY    31  25  78 SW10      29.86F WCI  22
SALIDA         PTSUNNY   46  29  50 S17G30    29.93F
SUNLIGHT       CLOUDY    30  30 100 S3          N/A  FOG
WILKERSON PASS SUNNY     32  23  69 S12G22    29.94F WCI  23
$$

COZ069>075-022000-
...SAN LUIS VALLEY/SANGRE DE CRISTO MOUNTAINS...

CITY           SKY/WX    TMP DP  RH WIND       PRES   REMARKS
ALAMOSA        MOSUNNY   43  27  53 S16       29.95F
LA VETA PASS   CLOUDY    30  25  80 SW9       29.99F WCI  22
SAGUACHE       NOT AVBL
$$

COZ035-036-038>040-022000-
...NORTHERN COLORADO FRONT RANGE...

CITY           SKY/WX    TMP DP  RH WIND       PRES   REMARKS
DENVER INTL AP MOSUNNY   29  20  69 N3        29.82F HAZE
DMNS CITY PARK   N/A     35  19  52 E5        29.82F WCI  31
AURORA         MOSUNNY   32  20  60 N5        29.81F WCI  27
FRONT RANGE AP NOT AVBL
ERIE MUNI ARPT SUNNY     29  21  73 CALM      29.84F HAZE
BOULDER MUN AP SUNNY     32  21  64 CALM      29.82F HAZE
CENTENNIAL     MOSUNNY   35  19  52 CALM      29.79F
BROOMFIELD     MOSUNNY   28  19  69 CALM      29.83F FOG
FORT COLLINS   SUNNY     30  19  64 NW5       29.85F WCI  25
LONGMONT       SUNNY     42  20  42 CALM      29.86F
$$

COZ041-046-047-076>085-087-088-022000-
...PIKES PEAK/PALMER DIVIDE AND SOUTHERN FOOTHILLS...

CITY           SKY/WX    TMP DP  RH WIND       PRES   REMARKS
COLO. SPRINGS  CLOUDY    25  22  88 SE6       29.90F FOG     WCI  18
A. F. ACADEMY  NOT AVBL
ELLICOTT       NOT AVBL
FALCON         SUNNY     32  25  74 S9        29.87F HAZE    WCI  24
FORT CARSON    MOSUNNY   29  22  77 SE6       29.89F FOG     WCI  22
LIMON          LGT SNOW  26  24  92 S18G28    29.88F VSB 3/4 WCI  13
MONUMENT HILL  SUNNY     39  27  60 SW10      29.81F
TRINIDAD       SUNNY     39  31  72 E6        29.90F
$$

COZ042>045-048>051-090-091-022000-
...NORTHEAST COLORADO...

CITY           SKY/WX    TMP DP  RH WIND       PRES   REMARKS
GREELEY ARPT   SUNNY     36  19  51 W5        29.84F
AKRON          MOSUNNY   34  25  69 S24G31    29.87F WCI  21
BURLINGTON     CLOUDY    28  23  81 S28G35    29.96F WCI  13
WRAY           CLOUDY    32  24  74 S18       29.98F WCI  20
STERLING       PTSUNNY   37  27  65 S16G24    29.89F
HOLYOKE        NOT AVBL
FORT MORGAN    MOSUNNY   39  23  52 S13       29.85F
$$

COZ086-089-092>099-022000-
...SOUTHEAST COLORADO...

CITY           SKY/WX    TMP DP  RH WIND       PRES   REMARKS
PUEBLO         CLOUDY    28  25  88 SE5       29.93F FOG     WCI  23
LA JUNTA       MOSUNNY   36  27  69 VRB3      29.96F
LAMAR          PTSUNNY   37  28  70 S21       29.97F
SPRINGFIELD      N/A     32  28  85 S23G33    29.97F WCI  19
$$



USA.gov is the U.S. government's official web portal to all federal, state and local government web resources and services.